N6OIL Weather Reports


time (UTC)temp
F
wind
direction
speed
knots
gust
knots
rain 1hr
in
rain 24hr
in
rain mn
in
humidity
%
barometer
mb
20260504160204 52 321 8.7 15.6 0.00 0.00 0.00 58 1013.2
20260504150705 50 315 9.6 14.8 0.00 0.00 0.00 65 1012.9
20260504141205 46 304 8.7 13.9 0.00 0.00 0.00 73 1012.9
20260504140704 46 327 7.8 13.0 0.00 0.00 0.00 75 1013.0
20260504130204 45 346 9.6 16.5 0.00 0.00 0.00 80 1012.5
20260504120204 45 322 9.6 15.6 0.00 0.00 0.00 81 1012.3
20260504110704 46 307 9.6 13.9 0.00 0.00 0.00 79 1012.2
20260504110204 46 312 8.7 12.2 0.00 0.00 0.00 78 1012.3
20260504100206 48 324 9.6 15.6 0.00 0.00 0.00 69 1012.4
20260504081704 50 324 10.4 18.2 0.00 0.00 0.00 64 1012.9
20260504081204 50 331 11.3 18.2 0.00 0.00 0.00 63 1012.8
20260504060205 52 12 5.2 8.7 0.00 0.00 0.00 62 1012.3
20260504050704 53 334 12.2 20.9 0.00 0.00 0.00 62 1012.0
20260504050204 53 327 12.2 17.4 0.00 0.00 0.00 62 1012.0
20260504045706 53 344 11.3 20.0 0.00 0.00 0.00 62 1012.0
20260504045204 53 353 12.2 20.0 0.00 0.00 0.00 61 1012.0
20260504044705 54 343 13.0 19.1 0.00 0.00 0.00 60 1012.0
20260504044204 54 317 12.2 20.0 0.00 0.00 0.00 59 1012.0
20260504043704 54 332 13.0 20.0 0.00 0.00 0.00 59 1011.9
20260504043205 54 329 13.0 21.7 0.00 0.00 0.00 58 1011.8
20260504042704 54 332 13.9 21.7 0.00 0.00 0.00 58 1011.6
20260504042204 54 344 13.9 23.5 0.00 0.00 0.00 58 1011.5
20260504041704 54 327 13.0 23.5 0.00 0.00 0.00 58 1011.5
20260504041204 54 348 13.9 23.5 0.00 0.00 0.00 58 1011.5
20260504040703 55 335 13.9 19.1 0.00 0.00 0.00 57 1011.3
20260504040204 55 313 13.0 19.1 0.00 0.00 0.00 56 1011.4
20260504035704 55 336 13.0 19.1 0.00 0.00 0.00 56 1011.3
20260504034704 55 313 10.4 20.0 0.00 0.00 0.00 55 1011.1
20260504034204 55 307 11.3 20.9 0.00 0.00 0.00 54 1010.8
20260504033704 55 312 13.0 20.9 0.00 0.00 0.00 54 1010.9
20260504033204 55 309 13.0 20.9 0.00 0.00 0.00 55 1011.0
20260504032704 55 331 13.0 23.5 0.00 0.00 0.00 56 1010.8
20260504032204 56 321 13.9 23.5 0.00 0.00 0.00 56 1010.8
20260504031704 56 306 13.0 23.5 0.00 0.00 0.00 57 1010.8
20260504031204 56 316 12.2 23.5 0.00 0.00 0.00 57 1010.5
20260504030704 56 321 13.0 23.5 0.00 0.00 0.00 57 1010.7
20260504030204 56 309 14.8 23.5 0.00 0.00 0.00 57 1010.4
20260504025704 56 298 14.8 23.5 0.00 0.00 0.00 57 1010.3
20260504025204 56 279 14.8 25.2 0.00 0.00 0.00 57 1010.2
20260504024704 56 319 14.8 25.2 0.00 0.00 0.00 57 1010.1
20260504024204 57 311 14.8 25.2 0.00 0.00 0.00 57 1010.1
20260504023704 57 319 13.9 24.3 0.00 0.00 0.00 57 1009.9
20260504023204 57 311 15.6 24.3 0.00 0.00 0.00 57 1010.0
20260504022704 58 325 16.5 24.3 0.00 0.00 0.00 56 1010.0
20260504022205 58 325 15.6 23.5 0.00 0.00 0.00 55 1009.9
20260504021704 58 309 14.8 25.2 0.00 0.00 0.00 57 1009.9
20260504021205 58 325 15.6 25.2 0.00 0.00 0.00 55 1009.8
20260504020704 59 322 15.6 25.2 0.00 0.00 0.00 56 1009.7
20260504020204 59 292 13.9 25.2 0.00 0.00 0.00 54 1009.8
20260504015704 59 329 14.8 25.2 0.00 0.00 0.00 54 1009.7
20260504014704 60 310 13.9 21.7 0.00 0.00 0.00 53 1009.7
20260504013204 60 342 15.6 26.1 0.00 0.00 0.00 53 1010.0
20260504012704 60 358 15.6 26.1 0.00 0.00 0.00 53 1009.8
20260504012204 61 337 14.8 24.3 0.00 0.00 0.00 51 1009.9
20260504011704 61 303 15.6 24.3 0.00 0.00 0.00 51 1009.9
20260504011204 62 345 13.9 23.5 0.00 0.00 0.00 50 1009.9
20260504010704 62 319 13.9 25.2 0.00 0.00 0.00 48 1009.8
20260504010204 62 333 15.6 25.2 0.00 0.00 0.00 48 1009.7
20260504005704 62 328 15.6 25.2 0.00 0.00 0.00 49 1009.9
20260504005204 62 302 16.5 25.2 0.00 0.00 0.00 50 1009.8
20260504004204 62 344 15.6 21.7 0.00 0.00 0.00 49 1009.7
20260504003704 63 297 15.6 26.1 0.00 0.00 0.00 49 1009.9
20260504003204 63 319 15.6 27.8 0.00 0.00 0.00 50 1009.7
20260504002704 63 304 17.4 27.8 0.00 0.00 0.00 50 1009.7
20260504002204 63 298 18.2 27.8 0.00 0.00 0.00 48 1009.4
20260504001705 63 316 18.2 26.9 0.00 0.00 0.00 47 1009.5
20260504001204 64 320 17.4 26.9 0.00 0.00 0.00 46 1009.7
20260504000704 64 315 17.4 23.5 0.00 0.00 0.00 45 1009.7
20260504000204 64 332 16.5 27.8 0.00 0.00 0.00 44 1009.3
20260503235704 64 308 17.4 27.8 0.00 0.00 0.00 46 1009.4
20260503235204 64 293 18.2 27.8 0.00 0.00 0.00 49 1009.4
20260503234704 64 306 17.4 27.8 0.00 0.00 0.00 49 1009.5
20260503233704 64 322 17.4 24.3 0.00 0.00 0.00 49 1009.7
20260503233204 64 333 17.4 26.1 0.00 0.00 0.00 50 1009.5
20260503232704 64 302 17.4 26.1 0.00 0.00 0.00 50 1009.7
20260503232204 64 304 17.4 26.1 0.00 0.00 0.00 49 1009.5
20260503231706 65 312 17.4 26.1 0.00 0.00 0.00 49 1009.5
20260503231204 65 319 18.2 26.1 0.00 0.00 0.00 49 1009.5
20260503230704 65 313 18.2 26.1 0.00 0.00 0.00 49 1009.5
20260503230204 65 311 16.5 25.2 0.00 0.00 0.00 49 1009.7
20260503225705 66 310 15.6 25.2 0.00 0.00 0.00 48 1009.7
20260503225204 65 272 16.5 25.2 0.00 0.00 0.00 48 1010.0
20260503224704 66 287 15.6 25.2 0.00 0.00 0.00 48 1009.9
20260503224204 66 289 15.6 25.2 0.00 0.00 0.00 48 1010.1
20260503223704 67 322 15.6 23.5 0.00 0.00 0.00 47 1009.8
20260503223204 67 297 15.6 23.5 0.00 0.00 0.00 48 1010.1
20260503222704 67 296 15.6 25.2 0.00 0.00 0.00 47 1010.1
20260503222205 67 286 16.5 25.2 0.00 0.00 0.00 48 1010.0
20260503221704 67 261 15.6 24.3 0.00 0.00 0.00 48 1010.3
20260503220705 67 282 15.6 22.6 0.00 0.00 0.00 47 1010.4
20260503220204 67 296 16.5 22.6 0.00 0.00 0.00 47 1010.4
20260503215204 68 285 16.5 22.6 0.00 0.00 0.00 45 1010.4
20260503214204 69 303 13.9 20.9 0.00 0.00 0.00 44 1010.7
20260503213705 68 323 14.8 20.9 0.00 0.00 0.00 45 1010.7
20260503213204 68 286 14.8 20.9 0.00 0.00 0.00 45 1010.8
20260503212704 68 279 14.8 20.9 0.00 0.00 0.00 45 1011.0
20260503212204 69 304 14.8 23.5 0.00 0.00 0.00 43 1011.0
20260503211704 69 358 15.6 23.5 0.00 0.00 0.00 43 1010.9
20260503211204 70 286 15.6 23.5 0.00 0.00 0.00 40 1010.8
20260503210705 70 358 14.8 21.7 0.00 0.00 0.00 41 1010.5
20260503210204 69 358 14.8 20.0 0.00 0.00 0.00 41 1010.9
20260503205704 69 283 14.8 21.7 0.00 0.00 0.00 41 1010.8
20260503205204 71 290 14.8 21.7 0.00 0.00 0.00 41 1010.8
20260503204704 72 358 14.8 21.7 0.00 0.00 0.00 37 1010.8
20260503204204 72 358 13.9 22.6 0.00 0.00 0.00 37 1010.8
20260503203704 71 305 14.8 22.6 0.00 0.00 0.00 38 1010.8
20260503203204 69 323 14.8 20.0 0.00 0.00 0.00 44 1010.9
20260503202704 69 313 13.9 20.9 0.00 0.00 0.00 46 1011.0
20260503202204 69 288 14.8 23.5 0.00 0.00 0.00 46 1011.1
20260503201704 69 296 15.6 23.5 0.00 0.00 0.00 47 1011.2
20260503201204 69 303 15.6 23.5 0.00 0.00 0.00 45 1011.2
20260503200204 67 284 13.9 21.7 0.00 0.00 0.00 49 1011.3
20260503195204 67 307 16.5 23.5 0.00 0.00 0.00 51 1011.4
20260503194704 66 289 17.4 23.5 0.00 0.00 0.00 51 1011.4
20260503194204 66 294 15.6 22.6 0.00 0.00 0.00 53 1011.3
20260503193704 65 332 15.6 22.6 0.00 0.00 0.00 54 1011.5
20260503192704 65 304 16.5 22.6 0.00 0.00 0.00 53 1011.8
20260503191705 65 296 15.6 23.5 0.00 0.00 0.00 56 1011.8
20260503191205 64 283 16.5 23.5 0.00 0.00 0.00 57 1011.9
20260503190204 64 310 15.6 23.5 0.00 0.00 0.00 57 1012.0
20260503185704 64 283 15.6 22.6 0.00 0.00 0.00 55 1012.0
20260503185203 65 289 15.6 22.6 0.00 0.00 0.00 54 1012.0
20260503184704 65 304 14.8 22.6 0.00 0.00 0.00 53 1012.1
20260503184205 65 300 13.9 20.0 0.00 0.00 0.00 53 1012.1
20260503183704 65 301 13.0 20.0 0.00 0.00 0.00 56 1012.1
20260503183204 64 271 13.9 20.0 0.00 0.00 0.00 58 1012.1
20260503182704 64 286 13.9 19.1 0.00 0.00 0.00 55 1012.2
20260503182204 64 307 13.0 19.1 0.00 0.00 0.00 55 1012.3
20260503181204 64 304 12.2 17.4 0.00 0.00 0.00 55 1012.3
20260503180704 64 292 12.2 19.1 0.00 0.00 0.00 54 1012.3
20260503175704 64 295 13.0 20.0 0.00 0.00 0.00 54 1012.3
20260503174704 63 284 13.9 20.9 0.00 0.00 0.00 55 1012.3
20260503173704 62 286 13.9 22.6 0.00 0.00 0.00 58 1012.3
20260503173204 62 285 13.9 17.4 0.00 0.00 0.00 57 1012.3
20260503172705 63 292 12.2 16.5 0.00 0.00 0.00 55 1012.3
20260503172204 64 285 11.3 16.5 0.00 0.00 0.00 55 1012.2
20260503171704 64 300 12.2 16.5 0.00 0.00 0.00 56 1012.2
20260503171207 64 294 12.2 17.4 0.00 0.00 0.00 55 1012.1
20260503170705 63 317 13.0 17.4 0.00 0.00 0.00 57 1012.0
20260503170204 63 280 13.9 19.1 0.00 0.00 0.00 57 1012.1